Home   Weather   Roanoke   Past weeks

Flag for USA Past Weather in Roanoke, Virginia, USA — Yesterday and Last 2 Weeks

Now
42 °F

Fog.


Feels Like: 42 °F
Forecast: 43 / 59 °F
Wind: No wind

Location: Roanoke Regional Airport

Current Time: Jan 17, 2017 at 8:28:05 am

Latest Report: Jan 17, 2017 at 7:54 am


Visibility: 6 mi

Pressure: 30.22 "Hg

Humidity: 100%

Dew Point: 42 °F

Location of RoanokeLocation

Past Weather in Roanoke — Graph

°F

Roanoke Temperature Yesterday

Maximum temperature yesterday: 45 °F (at 3:54 pm)
Minimum temperature yesterday: 39 °F (at 7:32 am)
Average temperature yesterday: 42 °F

High & Low Weather Summary for the Past Weeks

 TemperatureHumidityPressure
High68 °F (Jan 12, 2:54 pm)100% (Jan 2, 8:54 am)30.78 "Hg (Jan 2, 8:54 am)
Low10 °F (Jan 9, 6:54 am)28% (Jan 4, 5:54 pm)29.60 "Hg (Jan 4, 4:54 am)
Average38 °F72%30.27 "Hg
* Reported Jan 2 6:54 am — Jan 17 6:54 am, Roanoke, Weather by CustomWeather, © 2017

Note: Actual official high and low records may vary slightly from our data, if they occured in-between our weather recording intervals... More about our weather records

Advertising

Roanoke Weather History for the Previous 24 Hours

Scroll right to see more
 ConditionsComfort  
Time TempWeatherWind HumidityBarometerVisibility
6:54 am
Tue, Jan 17
41 °FLight rain. Fog.No wind100%30.22 "Hg4 mi
5:54 am41 °FFog.No wind100%30.22 "Hg1 mi
5:22 am40 °FFog.No wind100%30.21 "Hg1 mi
4:54 am41 °FFog.No wind100%30.21 "Hg0 mi
3:54 am40 °FFog.No wind100%30.23 "Hg0 mi
2:54 am41 °FFog.No wind100%30.25 "Hg0 mi
1:54 am41 °FFog.No wind100%30.26 "Hg0 mi
12:54 am42 °FFog.No wind96%30.28 "Hg0 mi
11:54 pm
Mon, Jan 16
42 °FFog.No wind96%30.29 "Hg4 mi
10:54 pm42 °FFog.No wind100%30.32 "Hg6 mi
9:54 pm43 °FFog.No wind97%30.34 "Hg6 mi
9:32 pm42 °FFog.No wind100%30.33 "Hg6 mi
8:54 pm42 °FFog.5 mph96%30.36 "Hg6 mi
7:54 pm44 °FPartly cloudy.No wind93%30.35 "Hg8 mi
6:54 pm45 °FOvercast.No wind90%30.36 "Hg10 mi
6:23 pm45 °FOvercast.No wind86%30.34 "Hg10 mi
5:54 pm45 °FOvercast.No wind90%30.36 "Hg10 mi
4:54 pm45 °FOvercast.No wind86%30.36 "Hg10 mi
3:54 pm45 °FLow clouds.3 mph86%30.36 "Hg10 mi
3:20 pm44 °FLow clouds.No wind89%30.35 "Hg10 mi
2:54 pm44 °FOvercast.5 mph85%30.37 "Hg10 mi
1:54 pm44 °FOvercast.3 mph82%30.37 "Hg10 mi
12:54 pm42 °FOvercast.No wind85%30.40 "Hg10 mi
11:54 am42 °FLow clouds.5 mph85%30.44 "Hg10 mi
10:54 am41 °FLow clouds.5 mph89%30.46 "Hg10 mi
9:54 am40 °FOvercast.6 mph93%30.46 "Hg10 mi
8:54 am39 °FOvercast.6 mph93%30.45 "Hg10 mi
8:01 am39 °FDrizzle. More clouds than sun.6 mph93%30.42 "Hg10 mi
Weather by CustomWeather, © 2017

See weather overviewHow to use our weather pages